ITY964 ZUUU-ZWWW

Flight info

Callsign ITY964
Flight time 2h 55m
Altitude 40000
Route BOKIR6N BOKIR W179 OMBON DCT XNN DCT NODID DCT NOGEX B215 IBANO G470 QTV W99 AGOXA AGOXA6T
Aircraft A332/H-SDE3GHIJ2J3J5M1RVWXY/LB2D1

Departure

Time 2026-04-21 05:11
Airport Chengdu Shuangliu International Airport (ZUUU)

Arrival

Time 2026-04-21 08:06
Airport Ürümqi Tianshan International Airport (ZWWW)
Time Latitude Longitude Altitude Speed Heading
2026-04-21 04:48 30.55269 103.95637 1657 ft 0 kts 114°
2026-04-21 05:00 30.55272 103.95629 1653 ft 3 kts 114°
2026-04-21 05:00 30.55289 103.95586 1653 ft 3 kts 114°
2026-04-21 05:01 30.55300 103.95566 1653 ft 3 kts 148°
2026-04-21 05:01 30.55319 103.95558 1653 ft 3 kts 189°
2026-04-21 05:01 30.55327 103.95560 1653 ft 0 kts 205°
2026-04-21 05:03 30.55285 103.95537 1653 ft 16 kts 205°
2026-04-21 05:03 30.55223 103.95426 1653 ft 20 kts 279°
2026-04-21 05:04 30.55281 103.95234 1653 ft 14 kts 293°
2026-04-21 05:04 30.55311 103.95149 1653 ft 13 kts 291°
2026-04-21 05:04 30.55327 103.95050 1653 ft 10 kts 253°
2026-04-21 05:04 30.55287 103.95000 1653 ft 9 kts 211°
2026-04-21 05:05 30.55225 103.94964 1653 ft 11 kts 205°
2026-04-21 05:05 30.55147 103.94926 1653 ft 13 kts 201°
2026-04-21 05:05 30.55054 103.94884 1653 ft 15 kts 201°
2026-04-21 05:05 30.54949 103.94835 1653 ft 17 kts 202°
2026-04-21 05:06 30.54830 103.94780 1653 ft 19 kts 202°
2026-04-21 05:06 30.54700 103.94719 1653 ft 21 kts 201°
2026-04-21 05:06 30.54558 103.94654 1653 ft 23 kts 201°
2026-04-21 05:06 30.54407 103.94583 1654 ft 24 kts 202°
2026-04-21 05:07 30.54246 103.94508 1653 ft 26 kts 201°
2026-04-21 05:07 30.54074 103.94428 1663 ft 27 kts 201°
2026-04-21 05:07 30.53897 103.94347 1669 ft 28 kts 201°
2026-04-21 05:07 30.53710 103.94261 1670 ft 29 kts 201°
2026-04-21 05:08 30.53516 103.94172 1668 ft 30 kts 202°
2026-04-21 05:08 30.53317 103.94078 1669 ft 31 kts 202°
2026-04-21 05:08 30.53110 103.93983 1669 ft 32 kts 201°
2026-04-21 05:08 30.52911 103.93889 1670 ft 31 kts 202°
2026-04-21 05:09 30.52708 103.93796 1668 ft 32 kts 201°
2026-04-21 05:09 30.52500 103.93700 1672 ft 33 kts 203°
2026-04-21 05:09 30.52288 103.93608 1671 ft 31 kts 186°
2026-04-21 05:09 30.52156 103.93723 1678 ft 16 kts 109°
2026-04-21 05:10 30.52178 103.93769 1680 ft 8 kts 31°
2026-04-21 05:10 30.52439 103.93904 1680 ft 77 kts 20°
2026-04-21 05:10 30.53143 103.94227 1676 ft 139 kts 22°
2026-04-21 05:10 30.54173 103.94697 1933 ft 170 kts 20°
2026-04-21 05:11 30.55325 103.95233 2484 ft 187 kts 24°
2026-04-21 05:11 30.56408 103.96105 3113 ft 200 kts 52°
2026-04-21 05:11 30.56941 103.97705 3459 ft 229 kts 77°
2026-04-21 05:11 30.57280 103.99578 3926 ft 248 kts 75°
2026-04-21 05:12 30.57737 104.01520 4859 ft 250 kts 71°
2026-04-21 05:12 30.58285 104.03450 5739 ft 255 kts 69°
2026-04-21 05:12 30.58903 104.05423 6510 ft 265 kts 67°
2026-04-21 05:12 30.59570 104.07443 7330 ft 271 kts 67°
2026-04-21 05:13 30.60267 104.09504 8223 ft 277 kts 67°
2026-04-21 05:13 30.60987 104.11609 9075 ft 285 kts 67°
2026-04-21 05:13 30.61735 104.13782 9876 ft 294 kts 68°
2026-04-21 05:13 30.62515 104.16001 10434 ft 311 kts 65°
2026-04-21 05:14 30.63668 104.18228 10754 ft 334 kts 49°
2026-04-21 05:14 30.65491 104.19994 11080 ft 353 kts 27°
2026-04-21 05:14 30.67842 104.20911 11656 ft 362 kts
2026-04-21 05:14 30.70360 104.21274 12378 ft 368 kts
2026-04-21 05:15 30.72925 104.21570 13097 ft 373 kts
2026-04-21 05:15 30.75522 104.21880 13701 ft 378 kts
2026-04-21 05:15 30.78160 104.22206 14277 ft 382 kts
2026-04-21 05:15 30.80808 104.22538 14898 ft 384 kts
2026-04-21 05:16 30.83436 104.22871 15522 ft 386 kts
2026-04-21 05:16 30.86115 104.23213 16142 ft 389 kts
2026-04-21 05:16 30.88810 104.23558 16766 ft 391 kts
2026-04-21 05:16 30.91524 104.23907 17400 ft 393 kts
2026-04-21 05:17 30.94251 104.24257 18023 ft 396 kts
2026-04-21 05:17 30.97000 104.24611 18572 ft 399 kts
2026-04-21 05:17 30.99775 104.24967 19052 ft 404 kts
2026-04-21 05:17 31.02585 104.25328 19558 ft 408 kts
2026-04-21 05:18 31.05424 104.25694 20073 ft 413 kts
2026-04-21 05:18 31.08254 104.26059 20589 ft 417 kts
2026-04-21 05:18 31.11150 104.26433 21135 ft 421 kts
2026-04-21 05:18 31.14078 104.26811 21657 ft 425 kts
2026-04-21 05:19 31.17032 104.27193 22188 ft 429 kts
2026-04-21 05:19 31.20014 104.27578 22712 ft 434 kts
2026-04-21 05:19 31.23030 104.27969 23254 ft 438 kts
2026-04-21 05:19 31.26075 104.28363 23733 ft 442 kts
2026-04-21 05:20 31.29144 104.28761 24203 ft 446 kts
2026-04-21 05:20 31.32200 104.29158 24690 ft 450 kts
2026-04-21 05:20 31.35320 104.29563 25203 ft 453 kts
2026-04-21 05:20 31.38470 104.29971 25701 ft 457 kts
2026-04-21 05:21 31.41648 104.30384 26207 ft 461 kts
2026-04-21 05:21 31.44850 104.30800 26705 ft 465 kts
2026-04-21 05:21 31.48083 104.31221 27213 ft 469 kts
2026-04-21 05:21 31.51337 104.31644 27691 ft 473 kts
2026-04-21 05:22 31.54622 104.32072 28177 ft 477 kts
2026-04-21 05:22 31.57937 104.32504 28658 ft 481 kts
2026-04-21 05:22 31.61238 104.32935 29101 ft 485 kts
2026-04-21 05:22 31.64608 104.33376 29515 ft 489 kts
2026-04-21 05:23 31.68009 104.33821 29966 ft 493 kts
2026-04-21 05:23 31.71430 104.34267 30355 ft 497 kts
2026-04-21 05:23 31.74873 104.34710 30775 ft 498 kts
2026-04-21 05:23 31.78321 104.34879 31171 ft 495 kts 354°
2026-04-21 05:24 31.81772 104.34798 31544 ft 496 kts 353°
2026-04-21 05:24 31.85228 104.34636 31872 ft 499 kts 352°
2026-04-21 05:24 31.88655 104.34441 32207 ft 501 kts 352°
2026-04-21 05:24 31.92146 104.34234 32493 ft 504 kts 352°
2026-04-21 05:25 31.95653 104.34030 32836 ft 506 kts 352°
2026-04-21 05:25 31.99172 104.33833 33323 ft 505 kts 352°
2026-04-21 05:25 32.02672 104.33645 33843 ft 503 kts 352°
2026-04-21 05:25 32.06164 104.33466 34241 ft 501 kts 352°
2026-04-21 05:26 32.09637 104.33292 34643 ft 499 kts 352°
2026-04-21 05:26 32.13111 104.33114 34861 ft 501 kts 351°
2026-04-21 05:26 32.16592 104.32932 35252 ft 500 kts 351°
2026-04-21 05:26 32.20017 104.32753 35667 ft 498 kts 351°
2026-04-21 05:27 32.23465 104.32574 36113 ft 495 kts 351°
2026-04-21 05:27 32.26896 104.32401 36473 ft 493 kts 350°
2026-04-21 05:27 32.30327 104.32228 36798 ft 493 kts 350°
2026-04-21 05:27 32.33758 104.32049 37114 ft 494 kts 350°
2026-04-21 05:28 32.37183 104.31867 37537 ft 492 kts 349°
2026-04-21 05:28 32.40596 104.31688 37975 ft 490 kts 349°
2026-04-21 05:28 32.43992 104.31521 38335 ft 488 kts 349°
2026-04-21 05:28 32.47337 104.31362 38700 ft 487 kts 349°
2026-04-21 05:29 32.50717 104.31201 39011 ft 485 kts 349°
2026-04-21 05:29 32.54077 104.31040 39432 ft 481 kts 349°
2026-04-21 05:29 32.57415 104.30884 39795 ft 480 kts 348°
2026-04-21 05:29 32.60758 104.30722 39903 ft 483 kts 348°
2026-04-21 05:30 32.67495 104.30389 39906 ft 484 kts 348°
2026-04-21 05:30 32.74221 104.30061 39914 ft 484 kts 348°
2026-04-21 05:31 32.80905 104.29733 39910 ft 484 kts 348°
2026-04-21 05:31 32.87622 104.29400 39917 ft 483 kts 349°
2026-04-21 05:32 32.94341 104.29078 39913 ft 484 kts 349°
2026-04-21 05:32 33.01075 104.28755 39913 ft 485 kts 348°
2026-04-21 05:33 33.07774 104.28433 39906 ft 485 kts 349°
2026-04-21 05:33 33.14516 104.28106 39906 ft 485 kts 349°
2026-04-21 05:34 33.21262 104.27784 39908 ft 485 kts 349°
2026-04-21 05:34 33.27976 104.27458 39906 ft 487 kts 348°
2026-04-21 05:35 33.34626 104.26600 39910 ft 472 kts 337°
2026-04-21 05:35 33.37717 104.25430 39912 ft 461 kts 329°
2026-04-21 05:35 33.40585 104.23800 39892 ft 453 kts 324°
2026-04-21 05:36 33.46099 104.20182 39897 ft 452 kts 322°
2026-04-21 05:36 33.51553 104.16437 39906 ft 454 kts 321°
2026-04-21 05:37 33.56982 104.12705 39886 ft 453 kts 322°
2026-04-21 05:37 33.62457 104.08965 39890 ft 453 kts 322°
2026-04-21 05:38 33.67939 104.05229 39886 ft 453 kts 322°
2026-04-21 05:38 33.73420 104.01494 39883 ft 452 kts 322°
2026-04-21 05:39 33.78864 103.97781 39889 ft 453 kts 322°
2026-04-21 05:39 33.84310 103.94090 39924 ft 449 kts 322°
2026-04-21 05:40 33.89731 103.90393 39950 ft 447 kts 322°
2026-04-21 05:40 33.95167 103.86648 39887 ft 452 kts 322°
2026-04-21 05:41 34.00629 103.82876 39891 ft 452 kts 322°
2026-04-21 05:41 34.06042 103.79141 39894 ft 451 kts 322°
2026-04-21 05:42 34.11494 103.75380 39886 ft 452 kts 322°
2026-04-21 05:42 34.16945 103.71619 39885 ft 451 kts 322°
2026-04-21 05:43 34.22389 103.67860 39882 ft 451 kts 322°
2026-04-21 05:43 34.27803 103.64126 39888 ft 453 kts 322°
2026-04-21 05:44 34.33260 103.60341 39871 ft 451 kts 322°
2026-04-21 05:44 34.38708 103.56559 39882 ft 452 kts 322°
2026-04-21 05:45 34.44162 103.52760 39869 ft 452 kts 321°
2026-04-21 05:45 34.48698 103.49605 39872 ft 453 kts 322°
2026-04-21 05:46 34.55049 103.45178 39873 ft 453 kts 322°
2026-04-21 05:46 34.60505 103.41370 39881 ft 452 kts 322°
2026-04-21 05:47 34.65029 103.38205 39883 ft 451 kts 321°
2026-04-21 05:47 34.71346 103.33779 39882 ft 451 kts 321°
2026-04-21 05:48 34.76778 103.29965 39894 ft 451 kts 321°
2026-04-21 05:48 34.82213 103.26146 39901 ft 451 kts 321°
2026-04-21 05:49 34.86733 103.22966 39907 ft 452 kts 322°
2026-04-21 05:49 34.93059 103.18509 39916 ft 452 kts 321°
2026-04-21 05:50 34.98502 103.14665 39928 ft 452 kts 321°
2026-04-21 05:50 35.03027 103.11465 39943 ft 453 kts 321°
2026-04-21 05:51 35.08475 103.07607 39942 ft 453 kts 321°
2026-04-21 05:51 35.13935 103.03734 39950 ft 454 kts 321°
2026-04-21 05:52 35.19390 102.99859 39952 ft 454 kts 322°
2026-04-21 05:52 35.24810 102.96006 39967 ft 454 kts 322°
2026-04-21 05:53 35.30276 102.92110 39973 ft 455 kts 322°
2026-04-21 05:53 35.35747 102.88208 39971 ft 454 kts 321°
2026-04-21 05:54 35.41205 102.84306 39985 ft 455 kts 322°
2026-04-21 05:54 35.46675 102.80388 39984 ft 456 kts 322°
2026-04-21 05:55 35.52115 102.76491 39986 ft 455 kts 321°
2026-04-21 05:55 35.57581 102.72566 39988 ft 455 kts 322°
2026-04-21 05:56 35.63056 102.68628 39990 ft 456 kts 322°
2026-04-21 05:56 35.68534 102.64683 39991 ft 456 kts 322°
2026-04-21 05:57 35.73978 102.60757 39992 ft 456 kts 322°
2026-04-21 05:57 35.79453 102.56801 39987 ft 456 kts 322°
2026-04-21 05:58 35.84927 102.52838 39984 ft 456 kts 322°
2026-04-21 05:58 35.90401 102.48867 39978 ft 457 kts 322°
2026-04-21 05:59 35.95841 102.44919 39976 ft 457 kts 322°
2026-04-21 06:00 36.04051 102.38945 39970 ft 457 kts 322°
2026-04-21 06:00 36.09525 102.34955 39970 ft 457 kts 322°
2026-04-21 06:01 36.14998 102.30957 39964 ft 457 kts 322°
2026-04-21 06:01 36.20432 102.26983 39960 ft 457 kts 322°
2026-04-21 06:02 36.25905 102.22973 39948 ft 457 kts 321°
2026-04-21 06:02 36.31374 102.18956 39951 ft 457 kts 322°
2026-04-21 06:03 36.36844 102.14937 39948 ft 457 kts 322°
2026-04-21 06:03 36.42273 102.10941 39941 ft 457 kts 322°
2026-04-21 06:04 36.47732 102.06915 39939 ft 456 kts 321°
2026-04-21 06:04 36.53196 102.02878 39924 ft 457 kts 322°
2026-04-21 06:05 36.58797 101.99059 39931 ft 461 kts 325°
2026-04-21 06:05 36.64522 101.95437 39923 ft 462 kts 326°
2026-04-21 06:06 36.70205 101.91805 39919 ft 462 kts 325°
2026-04-21 06:06 36.75899 101.88097 39917 ft 462 kts 325°
2026-04-21 06:07 36.81596 101.84358 39913 ft 463 kts 325°
2026-04-21 06:07 36.87297 101.80608 39907 ft 463 kts 325°
2026-04-21 06:08 36.93002 101.76854 39909 ft 464 kts 325°
2026-04-21 06:08 36.98670 101.73120 39908 ft 464 kts 325°
2026-04-21 06:09 37.04381 101.69355 39908 ft 464 kts 325°
2026-04-21 06:09 37.10096 101.65578 39914 ft 464 kts 325°
2026-04-21 06:10 37.15810 101.61790 39916 ft 465 kts 325°
2026-04-21 06:10 37.21483 101.58023 39907 ft 464 kts 325°
2026-04-21 06:11 37.27188 101.54217 39926 ft 463 kts 324°
2026-04-21 06:11 37.32344 101.49565 39937 ft 453 kts 313°
2026-04-21 06:12 37.37072 101.44338 39943 ft 452 kts 311°
2026-04-21 06:12 37.41697 101.39066 39951 ft 451 kts 311°
2026-04-21 06:13 37.46348 101.33752 39959 ft 452 kts 311°
2026-04-21 06:13 37.51013 101.28433 39968 ft 453 kts 311°
2026-04-21 06:14 37.55685 101.23111 39972 ft 452 kts 311°
2026-04-21 06:14 37.60348 101.17792 39984 ft 453 kts 311°
2026-04-21 06:15 37.64985 101.12492 39988 ft 453 kts 311°
2026-04-21 06:15 37.69656 101.07143 39996 ft 454 kts 311°
2026-04-21 06:16 37.74329 101.01781 40001 ft 454 kts 311°
2026-04-21 06:16 37.79002 100.96410 40008 ft 455 kts 311°
2026-04-21 06:17 37.83268 100.90618 40022 ft 446 kts 300°
2026-04-21 06:17 37.86486 100.84036 40016 ft 443 kts 295°
2026-04-21 06:18 37.89512 100.77258 40021 ft 442 kts 294°
2026-04-21 06:18 37.92506 100.70455 40018 ft 442 kts 294°
2026-04-21 06:19 37.95489 100.63703 40022 ft 442 kts 294°
2026-04-21 06:19 37.98500 100.56906 40023 ft 443 kts 294°
2026-04-21 06:20 38.01514 100.50100 40024 ft 443 kts 294°
2026-04-21 06:20 38.04522 100.43290 40024 ft 443 kts 294°
2026-04-21 06:21 38.07528 100.36464 40022 ft 443 kts 294°
2026-04-21 06:21 38.10509 100.29683 40019 ft 443 kts 294°
2026-04-21 06:22 38.13504 100.22856 40025 ft 443 kts 294°
2026-04-21 06:22 38.16502 100.16005 40023 ft 444 kts 294°
2026-04-21 06:23 38.19494 100.09154 40028 ft 444 kts 294°
2026-04-21 06:23 38.22469 100.02321 40036 ft 445 kts 294°
2026-04-21 06:24 38.25468 99.95426 40036 ft 446 kts 294°
2026-04-21 06:24 38.28467 99.88520 40039 ft 446 kts 294°
2026-04-21 06:25 38.31461 99.81606 40036 ft 446 kts 294°
2026-04-21 06:25 38.34434 99.74725 40046 ft 446 kts 294°
2026-04-21 06:26 38.37421 99.67794 40048 ft 446 kts 293°
2026-04-21 06:26 38.40404 99.60862 40040 ft 446 kts 293°
2026-04-21 06:27 38.43379 99.53928 40038 ft 446 kts 293°
2026-04-21 06:27 38.46334 99.47034 40036 ft 446 kts 293°
2026-04-21 06:28 38.49299 99.40096 40024 ft 445 kts 293°
2026-04-21 06:28 38.52256 99.33160 40013 ft 444 kts 293°
2026-04-21 06:29 38.55208 99.26229 40008 ft 444 kts 293°
2026-04-21 06:29 38.58154 99.19282 40011 ft 445 kts 293°
2026-04-21 06:30 38.61078 99.12381 40007 ft 443 kts 292°
2026-04-21 06:30 38.64006 99.05449 40007 ft 444 kts 293°
2026-04-21 06:31 38.66938 98.98493 40002 ft 445 kts 293°
2026-04-21 06:31 38.69869 98.91529 40002 ft 444 kts 293°
2026-04-21 06:32 38.72792 98.84569 40004 ft 444 kts 293°
2026-04-21 06:32 38.75693 98.77639 40004 ft 445 kts 293°
2026-04-21 06:33 38.78613 98.70651 39997 ft 445 kts 293°
2026-04-21 06:33 38.81534 98.63647 40003 ft 446 kts 292°
2026-04-21 06:34 38.84451 98.56632 39996 ft 446 kts 293°
2026-04-21 06:34 38.87348 98.49655 39997 ft 446 kts 293°
2026-04-21 06:35 38.90265 98.42616 39999 ft 447 kts 293°
2026-04-21 06:35 38.93178 98.35568 40000 ft 447 kts 293°
2026-04-21 06:36 38.96087 98.28512 39998 ft 447 kts 293°
2026-04-21 06:36 38.98976 98.21491 40000 ft 447 kts 293°
2026-04-21 06:37 39.01881 98.14414 39990 ft 448 kts 293°
2026-04-21 06:37 39.04779 98.07339 39991 ft 448 kts 293°
2026-04-21 06:38 39.07681 98.00239 40004 ft 449 kts 293°
2026-04-21 06:38 39.10567 97.93159 40015 ft 450 kts 293°
2026-04-21 06:39 39.13464 97.86043 40007 ft 449 kts 293°
2026-04-21 06:39 39.16364 97.78900 40021 ft 450 kts 293°
2026-04-21 06:40 39.19255 97.71753 40028 ft 450 kts 293°
2026-04-21 06:40 39.22145 97.64593 40038 ft 450 kts 293°
2026-04-21 06:41 39.25015 97.57480 40037 ft 451 kts 293°
2026-04-21 06:41 39.27913 97.50301 40047 ft 451 kts 293°
2026-04-21 06:42 39.30808 97.43115 40048 ft 451 kts 293°
2026-04-21 06:42 39.33697 97.35929 40055 ft 452 kts 293°
2026-04-21 06:43 39.36588 97.28715 40043 ft 452 kts 293°
2026-04-21 06:43 39.39455 97.21551 40045 ft 451 kts 293°
2026-04-21 06:44 39.42331 97.14331 40048 ft 452 kts 293°
2026-04-21 06:44 39.45174 97.07186 40051 ft 453 kts 293°
2026-04-21 06:45 39.48104 96.99824 40049 ft 454 kts 293°
2026-04-21 06:45 39.50978 96.92662 40051 ft 455 kts 294°
2026-04-21 06:46 39.53901 96.85371 40055 ft 456 kts 294°
2026-04-21 06:46 39.56817 96.78067 40055 ft 457 kts 294°
2026-04-21 06:47 39.59730 96.70748 40059 ft 457 kts 294°
2026-04-21 06:47 39.62641 96.63419 40060 ft 457 kts 294°
2026-04-21 06:48 39.65530 96.56129 40060 ft 457 kts 294°
2026-04-21 06:48 39.68416 96.48784 40061 ft 457 kts 293°
2026-04-21 06:49 39.71299 96.41424 40056 ft 457 kts 294°
2026-04-21 06:49 39.74178 96.34068 40050 ft 457 kts 294°
2026-04-21 06:50 39.77035 96.26755 40043 ft 457 kts 294°
2026-04-21 06:50 39.79907 96.19385 40037 ft 457 kts 294°
2026-04-21 06:51 39.82775 96.12009 40031 ft 457 kts 294°
2026-04-21 06:51 39.85640 96.04621 40021 ft 457 kts 294°
2026-04-21 06:52 39.88501 95.97224 40011 ft 457 kts 294°
2026-04-21 06:52 39.91339 95.89868 40010 ft 458 kts 294°
2026-04-21 06:53 39.94192 95.82457 40004 ft 458 kts 294°
2026-04-21 06:53 39.97040 95.75039 39997 ft 457 kts 294°
2026-04-21 06:54 39.99882 95.67617 39993 ft 457 kts 294°
2026-04-21 06:54 40.02699 95.60245 39985 ft 457 kts 294°
2026-04-21 06:55 40.05530 95.52817 39980 ft 457 kts 294°
2026-04-21 06:55 40.08356 95.45381 39974 ft 457 kts 294°
2026-04-21 06:56 40.11176 95.37944 39967 ft 457 kts 294°
2026-04-21 06:56 40.13975 95.30545 39964 ft 457 kts 294°
2026-04-21 06:57 40.16788 95.23089 39962 ft 457 kts 294°
2026-04-21 06:57 40.19597 95.15626 39954 ft 457 kts 294°
2026-04-21 06:58 40.22419 95.08166 39955 ft 458 kts 294°
2026-04-21 06:58 40.25264 95.00706 39953 ft 458 kts 294°
2026-04-21 06:59 40.28084 94.93291 39953 ft 458 kts 294°
2026-04-21 06:59 40.31169 94.85974 39938 ft 461 kts 302°
2026-04-21 07:00 40.35045 94.79255 39937 ft 463 kts 305°
2026-04-21 07:00 40.39054 94.72645 39938 ft 463 kts 306°
2026-04-21 07:01 40.43053 94.66083 39936 ft 463 kts 306°
2026-04-21 07:01 40.49069 94.56132 39942 ft 464 kts 306°
2026-04-21 07:02 40.53065 94.49486 39943 ft 464 kts 306°
2026-04-21 07:02 40.57060 94.42824 39942 ft 464 kts 306°
2026-04-21 07:03 40.61030 94.36194 39943 ft 464 kts 306°
2026-04-21 07:03 40.65020 94.29516 39946 ft 464 kts 306°
2026-04-21 07:04 40.69011 94.22821 39952 ft 464 kts 306°
2026-04-21 07:04 40.72998 94.16120 39952 ft 465 kts 306°
2026-04-21 07:05 40.76981 94.09408 39957 ft 465 kts 306°
2026-04-21 07:05 40.80932 94.02738 39958 ft 465 kts 306°
2026-04-21 07:06 40.84911 93.96006 39958 ft 465 kts 306°
2026-04-21 07:06 40.88882 93.89273 39962 ft 465 kts 306°
2026-04-21 07:07 40.92865 93.82542 39964 ft 465 kts 307°
2026-04-21 07:07 40.97023 93.76064 39966 ft 465 kts 309°
2026-04-21 07:08 41.01280 93.69610 39964 ft 465 kts 308°
2026-04-21 07:08 41.05508 93.63118 39964 ft 465 kts 308°
2026-04-21 07:09 41.09707 93.56593 39964 ft 465 kts 308°
2026-04-21 07:09 41.13865 93.50101 39964 ft 465 kts 308°
2026-04-21 07:10 41.18050 93.43554 39965 ft 465 kts 308°
2026-04-21 07:10 41.22229 93.37004 39963 ft 465 kts 308°
2026-04-21 07:11 41.26406 93.30446 39970 ft 465 kts 308°
2026-04-21 07:11 41.30580 93.23879 39971 ft 465 kts 308°
2026-04-21 07:12 41.34719 93.17351 39970 ft 465 kts 308°
2026-04-21 07:12 41.38883 93.10770 39972 ft 465 kts 308°
2026-04-21 07:13 41.43043 93.04182 39971 ft 465 kts 308°
2026-04-21 07:13 41.47200 92.97583 39967 ft 465 kts 308°
2026-04-21 07:14 41.51324 92.91022 39973 ft 464 kts 308°
2026-04-21 07:14 41.55471 92.84411 39975 ft 465 kts 308°
2026-04-21 07:15 41.59614 92.77791 39982 ft 465 kts 308°
2026-04-21 07:15 41.63757 92.71157 39973 ft 465 kts 308°
2026-04-21 07:16 41.67892 92.64520 39986 ft 465 kts 308°
2026-04-21 07:16 41.72000 92.57913 39987 ft 465 kts 308°
2026-04-21 07:17 41.76129 92.51258 39969 ft 465 kts 308°
2026-04-21 07:17 41.80259 92.44585 39971 ft 465 kts 308°
2026-04-21 07:18 41.84381 92.37912 39979 ft 465 kts 308°
2026-04-21 07:18 41.88471 92.31274 39984 ft 465 kts 308°
2026-04-21 07:19 41.92587 92.24580 39989 ft 465 kts 308°
2026-04-21 07:19 41.96700 92.17876 39985 ft 465 kts 308°
2026-04-21 07:20 42.00805 92.11169 39996 ft 465 kts 308°
2026-04-21 07:20 42.04881 92.04496 39991 ft 465 kts 308°
2026-04-21 07:21 42.08979 91.97772 39996 ft 465 kts 308°
2026-04-21 07:21 42.13075 91.91035 39993 ft 465 kts 308°
2026-04-21 07:22 42.17166 91.84292 39992 ft 465 kts 308°
2026-04-21 07:22 42.21264 91.77628 40002 ft 465 kts 312°
2026-04-21 07:23 42.26228 91.72045 39996 ft 467 kts 325°
2026-04-21 07:23 42.31736 91.67376 40000 ft 468 kts 327°
2026-04-21 07:24 42.37313 91.62850 40001 ft 468 kts 327°
2026-04-21 07:24 42.42891 91.58315 39981 ft 468 kts 327°
2026-04-21 07:25 42.48420 91.53780 39986 ft 467 kts 327°
2026-04-21 07:25 42.53977 91.49196 39983 ft 467 kts 327°
2026-04-21 07:26 42.59526 91.44609 39978 ft 467 kts 327°
2026-04-21 07:26 42.65076 91.40011 39985 ft 467 kts 327°
2026-04-21 07:27 42.70587 91.35437 39977 ft 467 kts 327°
2026-04-21 07:27 42.76128 91.30829 39981 ft 467 kts 327°
2026-04-21 07:28 42.81670 91.26211 39980 ft 467 kts 327°
2026-04-21 07:28 42.87154 91.21491 39988 ft 466 kts 322°
2026-04-21 07:29 42.91970 91.15681 39977 ft 465 kts 315°
2026-04-21 07:29 42.96580 91.09481 39985 ft 465 kts 314°
2026-04-21 07:30 43.01149 91.03218 39980 ft 465 kts 314°
2026-04-21 07:30 43.05720 90.96958 39989 ft 465 kts 315°
2026-04-21 07:31 43.10267 90.90740 40002 ft 465 kts 315°
2026-04-21 07:31 43.14843 90.84478 39763 ft 465 kts 315°
2026-04-21 07:32 43.17128 90.81346 39529 ft 465 kts 315°
2026-04-21 07:32 43.19413 90.78210 39299 ft 466 kts 315°
2026-04-21 07:32 43.21702 90.75065 39080 ft 466 kts 315°
2026-04-21 07:32 43.23989 90.71919 38853 ft 466 kts 315°
2026-04-21 07:33 43.26279 90.68763 38613 ft 466 kts 315°
2026-04-21 07:33 43.28537 90.65651 38346 ft 467 kts 315°
2026-04-21 07:33 43.30827 90.62488 38093 ft 467 kts 315°
2026-04-21 07:33 43.33122 90.59317 38031 ft 468 kts 315°
2026-04-21 07:34 43.37709 90.52969 38039 ft 468 kts 315°
2026-04-21 07:34 43.42187 90.46474 38047 ft 468 kts 313°
2026-04-21 07:35 43.46534 90.39879 38054 ft 468 kts 313°
2026-04-21 07:35 43.50917 90.33252 38056 ft 468 kts 313°
2026-04-21 07:36 43.55165 90.26865 38066 ft 468 kts 313°
2026-04-21 07:36 43.59560 90.20268 38070 ft 468 kts 313°
2026-04-21 07:37 43.63963 90.13648 38068 ft 468 kts 313°
2026-04-21 07:37 43.68327 90.07069 38063 ft 468 kts 313°
2026-04-21 07:38 43.72741 90.00465 38059 ft 467 kts 314°
2026-04-21 07:38 43.77151 89.93872 38056 ft 467 kts 313°
2026-04-21 07:39 43.81557 89.87269 38054 ft 467 kts 313°
2026-04-21 07:39 43.85921 89.80704 38043 ft 466 kts 313°
2026-04-21 07:40 43.90310 89.74085 38044 ft 466 kts 313°
2026-04-21 07:40 43.94688 89.67468 38043 ft 465 kts 313°
2026-04-21 07:41 43.98435 89.60171 38044 ft 469 kts 295°
2026-04-21 07:41 43.99415 89.55851 38049 ft 471 kts 283°
2026-04-21 07:41 43.99995 89.51370 38045 ft 472 kts 281°
2026-04-21 07:42 44.01023 89.42412 38046 ft 473 kts 281°
2026-04-21 07:42 44.02053 89.33392 38047 ft 473 kts 281°
2026-04-21 07:43 44.03081 89.24359 38054 ft 473 kts 281°
2026-04-21 07:43 44.04102 89.15327 38061 ft 473 kts 281°
2026-04-21 07:44 44.04608 89.10825 37881 ft 469 kts 281°
2026-04-21 07:44 44.05102 89.06409 37046 ft 470 kts 281°
2026-04-21 07:44 44.05609 89.01882 35986 ft 477 kts 281°
2026-04-21 07:44 44.06118 88.97316 34911 ft 474 kts 281°
2026-04-21 07:45 44.06617 88.92801 33363 ft 472 kts 281°
2026-04-21 07:45 44.07107 88.88357 32474 ft 459 kts 281°
2026-04-21 07:45 44.07590 88.83978 31650 ft 459 kts 281°
2026-04-21 07:45 44.08082 88.79584 30781 ft 461 kts 281°
2026-04-21 07:46 44.08572 88.75172 29788 ft 462 kts 281°
2026-04-21 07:46 44.09053 88.70817 28910 ft 461 kts 281°
2026-04-21 07:46 44.09535 88.66429 28255 ft 457 kts 281°
2026-04-21 07:46 44.10010 88.62085 27595 ft 452 kts 281°
2026-04-21 07:47 44.10482 88.57778 26923 ft 448 kts 281°
2026-04-21 07:47 44.10951 88.53517 26257 ft 444 kts 281°
2026-04-21 07:47 44.11413 88.49293 25594 ft 439 kts 280°
2026-04-21 07:47 44.11868 88.45113 24947 ft 435 kts 280°
2026-04-21 07:48 44.12317 88.40974 24285 ft 431 kts 280°
2026-04-21 07:48 44.12760 88.36870 23624 ft 426 kts 280°
2026-04-21 07:48 44.13192 88.32867 22911 ft 425 kts 280°
2026-04-21 07:48 44.13634 88.28804 22247 ft 423 kts 280°
2026-04-21 07:49 44.14068 88.24771 21589 ft 419 kts 279°
2026-04-21 07:49 44.14493 88.20781 20936 ft 415 kts 279°
2026-04-21 07:49 44.14915 88.16827 20285 ft 411 kts 279°
2026-04-21 07:49 44.15328 88.12905 19638 ft 408 kts 279°
2026-04-21 07:50 44.15736 88.09003 18955 ft 406 kts 279°
2026-04-21 07:50 44.16166 88.05139 18276 ft 403 kts 281°
2026-04-21 07:50 44.16635 88.01307 17546 ft 400 kts 277°
2026-04-21 07:50 44.16549 87.97515 16860 ft 398 kts 260°
2026-04-21 07:51 44.15659 87.93885 16189 ft 396 kts 246°
2026-04-21 07:51 44.14407 87.90482 15488 ft 393 kts 243°
2026-04-21 07:51 44.13121 87.87142 14798 ft 390 kts 243°
2026-04-21 07:51 44.11845 87.83827 14119 ft 387 kts 243°
2026-04-21 07:52 44.10585 87.80537 13375 ft 384 kts 243°
2026-04-21 07:52 44.09338 87.77277 12673 ft 379 kts 243°
2026-04-21 07:52 44.08114 87.74056 11997 ft 374 kts 243°
2026-04-21 07:52 44.07143 87.70792 11365 ft 367 kts 252°
2026-04-21 07:53 44.06419 87.67454 11135 ft 352 kts 255°
2026-04-21 07:53 44.05757 87.64274 11026 ft 334 kts 255°
2026-04-21 07:53 44.05121 87.61259 10923 ft 317 kts 254°
2026-04-21 07:53 44.04516 87.58385 10816 ft 303 kts 255°
2026-04-21 07:54 44.03942 87.55677 10657 ft 278 kts 254°
2026-04-21 07:54 44.03418 87.53222 10533 ft 253 kts 254°
2026-04-21 07:54 44.02936 87.50969 10416 ft 238 kts 255°
2026-04-21 07:54 44.02472 87.48795 10301 ft 231 kts 255°
2026-04-21 07:55 44.02028 87.46712 10209 ft 226 kts 255°
2026-04-21 07:55 44.01585 87.44635 10114 ft 224 kts 255°
2026-04-21 07:55 44.01141 87.42557 9992 ft 225 kts 255°
2026-04-21 07:55 44.00689 87.40436 9768 ft 235 kts 255°
2026-04-21 07:56 44.00207 87.38195 9580 ft 247 kts 255°
2026-04-21 07:56 43.99715 87.35911 9425 ft 246 kts 255°
2026-04-21 07:56 43.99227 87.33637 9090 ft 247 kts 255°
2026-04-21 07:56 43.98740 87.31371 8714 ft 249 kts 254°
2026-04-21 07:57 43.98249 87.29075 8405 ft 248 kts 255°
2026-04-21 07:57 43.97760 87.26785 8108 ft 247 kts 254°
2026-04-21 07:57 43.97269 87.24500 7797 ft 247 kts 255°
2026-04-21 07:57 43.96784 87.22226 7525 ft 246 kts 255°
2026-04-21 07:58 43.96299 87.19954 7254 ft 245 kts 255°
2026-04-21 07:58 43.95790 87.17690 6978 ft 246 kts 250°
2026-04-21 07:58 43.94861 87.15768 6831 ft 239 kts 221°
2026-04-21 07:58 43.93377 87.14842 6618 ft 235 kts 186°
2026-04-21 07:59 43.91791 87.15092 6531 ft 225 kts 164°
2026-04-21 07:59 43.90361 87.15698 6528 ft 211 kts 162°
2026-04-21 07:59 43.89002 87.16301 6518 ft 199 kts 162°
2026-04-21 07:59 43.87759 87.17029 6389 ft 190 kts 148°
2026-04-21 08:00 43.86955 87.18386 6074 ft 180 kts 103°
2026-04-21 08:00 43.86792 87.20020 5925 ft 166 kts 88°
2026-04-21 08:00 43.86962 87.21555 5682 ft 158 kts 72°
2026-04-21 08:00 43.87281 87.23001 5415 ft 153 kts 73°
2026-04-21 08:01 43.87565 87.24394 5201 ft 148 kts 73°
2026-04-21 08:01 43.87846 87.25760 4992 ft 146 kts 72°
2026-04-21 08:01 43.88127 87.27083 4794 ft 144 kts 73°
2026-04-21 08:02 43.88660 87.29636 4449 ft 135 kts 72°
2026-04-21 08:02 43.88920 87.30862 4236 ft 131 kts 72°
2026-04-21 08:02 43.89180 87.32096 4088 ft 137 kts 72°
2026-04-21 08:02 43.89447 87.33347 3900 ft 132 kts 72°
2026-04-21 08:03 43.89706 87.34562 3729 ft 131 kts 72°
2026-04-21 08:03 43.89963 87.35783 3565 ft 132 kts 73°
2026-04-21 08:03 43.90221 87.37007 3403 ft 133 kts 72°
2026-04-21 08:03 43.90484 87.38254 3185 ft 136 kts 72°
2026-04-21 08:04 43.90741 87.39466 2955 ft 133 kts 73°
2026-04-21 08:04 43.91003 87.40703 2876 ft 146 kts 73°
2026-04-21 08:04 43.91293 87.42077 2623 ft 145 kts 73°
2026-04-21 08:04 43.91572 87.43400 2386 ft 140 kts 73°
2026-04-21 08:05 43.91836 87.44638 2260 ft 135 kts 73°
2026-04-21 08:05 43.92092 87.45874 2144 ft 125 kts 73°
2026-04-21 08:05 43.92266 87.46677 2142 ft 65 kts 73°
2026-04-21 08:05 43.92385 87.47268 2140 ft 60 kts 86°
2026-04-21 08:06 43.92360 87.47474 2140 ft 0 kts 106°
2026-04-21 08:06 43.92348 87.47536 2142 ft 18 kts 103°
2026-04-21 08:06 43.92329 87.47712 2142 ft 19 kts 89°
2026-04-21 08:07 43.92353 87.47897 2142 ft 20 kts 76°
2026-04-21 08:07 43.92393 87.48085 2142 ft 21 kts 74°
2026-04-21 08:07 43.92437 87.48289 2142 ft 23 kts 74°
2026-04-21 08:07 43.92459 87.48497 2142 ft 18 kts 121°
2026-04-21 08:08 43.92351 87.48574 2142 ft 18 kts 158°
2026-04-21 08:08 43.92232 87.48657 2141 ft 20 kts 162°
2026-04-21 08:08 43.92093 87.48714 2142 ft 22 kts 163°
2026-04-21 08:08 43.91943 87.48776 2142 ft 23 kts 164°
2026-04-21 08:09 43.91782 87.48841 2142 ft 25 kts 163°
2026-04-21 08:09 43.91610 87.48914 2142 ft 27 kts 162°
2026-04-21 08:09 43.91428 87.48986 2140 ft 28 kts 164°
2026-04-21 08:09 43.91325 87.49083 2142 ft 9 kts 94°
2026-04-21 08:10 43.91317 87.49159 2142 ft 9 kts 110°
2026-04-21 08:10 43.91267 87.49232 2141 ft 19 kts 143°
2026-04-21 08:10 43.91081 87.49387 2142 ft 35 kts 154°
2026-04-21 08:10 43.90934 87.49505 2141 ft 12 kts 111°
2026-04-21 08:11 43.90877 87.49720 2141 ft 29 kts 121°
2026-04-21 08:11 43.90790 87.49937 2141 ft 23 kts 156°
2026-04-21 08:11 43.90765 87.49948 2140 ft 0 kts 163°